Find Starlink 30809

NORAD ID: 58183 Int'l Des: 2023-167 Owner: SPXS Country: US Constellation: starlink operational
LEOCIRCULAR

リアルタイム位置

3D地球を読み込み中...

Starlink 30809について

説明を読み込み中...

次回通過

Passes for default location (London). Set your location on the main map for personalized predictions.

高度履歴

Loading altitude history...

軌道要素

1 58183U 23167J 26124.48179500 .00000773 00000-0 37626-4 0 9998
2 58183 43.0038 188.6683 0001637 259.3914 100.6754 15.27562446139519
Epoch: May 4, 2026 • Age: 19 hours

現在のステータス

高度 485.4 km
速度 7.63 km/s
衛星直下点 34.85°N, 10.99°W
打ち上げ日 Oct 30, 2023
運用期間 2.5 years
タイプ internet

技術仕様

分類 Payload
質量 730.00 kg
乾燥質量 700.00 kg
総質量 730.00 kg
長さ 0.30 m
直径 4.10 m
スパン 29.00 m
形状 Box + pan
製造者 SPXS
バスタイプ Starlink V2M
フェーズステータス In Orbit
所有者/国 SPXS/US

Most Searched